Location: ??????????
(42.1626°N, 44.1160°E)
Time: 13:26:40
(UTC+00:00)

COSMOS 2455 - Pass Details

Date: 03 March 2021
Orbit: 902 x 908 km, 67.1° (Epoch: 13 April)

Event Time Altitude Azimuth Distance (km) Brightness Sun altitude
Rises 15:24:52 0° 323° (NW) 3,542 6.5 -6.2°
Reaches altitude 10° 15:27:31 10° 316° (NW) 2,597 5.9 -6.6°
Maximum altitude 15:33:03 39° 249° (WSW) 1,326 4.4 -7.7°
Drops below altitude 10° 15:38:33 10° 183° (S) 2,579 5.3 -8.7°
Sets 15:41:11 0° 175° (S) 3,516 5.9 -9.2°
